Hundvaag 1 weather for Oct 1991
Month no. 52
Obs.
Da.
Temp. Dew Point Precip. Wind
Speed
Wind gusts Cloud cover Press. Humidity Wind dir. Sunny OPT
01.10.1991 5,9   5,0             1  
02.10.1991 7,9   13,4             1  
03.10.1991 7,8   2,7             1  
04.10.1991 8,2   10,1             1  
05.10.1991 11,2   3,6                
06.10.1991 7,9   17,5             1  
07.10.1991 9,2   0,9             1  
08.10.1991 11,6   0,4             1  
09.10.1991 10,6   0,0                
10.10.1991 10,0   0,0             1  
11.10.1991 7,6   0,0             1  
12.10.1991 12,2   0,0             1  
13.10.1991 12,2   0,0                
14.10.1991 8,8   0,5                
15.10.1991 8,4   8,1                
16.10.1991 8,0   5,0                
17.10.1991 7,1   24,0                
18.10.1991 7,2   5,3             1  
19.10.1991 5,2   0,0             1  
20.10.1991 0,1   0,0             1  
21.10.1991 3,2   1,1                
22.10.1991 6,0   1,6                
23.10.1991 3,5   0,3                
24.10.1991 3,0   0,0             1  
25.10.1991 2,0   0,0             1  
26.10.1991 7,6   0,7                
27.10.1991 5,8   0,0             1  
28.10.1991 7,0   0,0             1  
29.10.1991 7,8   0,0                
30.10.1991 6,8   0,0                
31.10.1991 6,1   0,0                
Avrg/Sum 7,3   100,2             17